{"data":{"norad_id":66754,"intl_designator":"2025-276CS","name":"ICEYE-X61","alt_names":[],"object_type":"PAYLOAD","status":"ACTIVE","operator":null,"country":"FIN","launch_date":"2025-11-28","launch_site_code":"AFWTR","launch_vehicle":null,"mission":null,"orbit_class":"UNKNOWN","rcs_meters":null,"size_class":null,"mass_kg":null,"dimensions":null,"purposes":[],"wikipedia_slug":null,"has_3d_model":false,"image_url":null,"decayed_at":null,"tle_current":{"epoch":"2026-05-25T03:50:21.437376Z","epoch_age_seconds":60949,"freshness":"FRESH","line1":"1 66754U 25276CS  26145.15997034  .00003034  00000+0  15146-3 0  9995","line2":"2 66754  97.4207 219.0840 0004691  72.9846 287.1902 15.18237141 26920","mean_motion":15.18237141,"eccentricity":0.0004691,"inclination_deg":97.4207,"raan_deg":219.084,"arg_perigee_deg":72.9846,"mean_anomaly_deg":287.1902,"bstar":0.00015146,"rev_number":2692,"period_min":94.846843165194,"perigee_km":507.93656985709,"apogee_km":514.40011612989,"semimajor_km":6889.3053429935,"source":"CELESTRAK","updated_at":"2026-05-25T13:38:06.452691Z"}}}